Location: Betpouey
(42.8833°N, 0.0333°E)
Time: 22:28:00
(UTC+00:00)

Lacrosse 4 Rocket - Pass Details

Date: 01 December 2020
Orbit: 538 x 620 km, 68.0° (Epoch: 18 January)

Event Time Altitude Azimuth Distance (km) Brightness Sun altitude
Rises 19:20:18 0° 220° (SW) 2,682 5.4 -31.2°
Reaches altitude 10° 19:22:31 10° 226° (SW) 1,800 4.4 -31.6°
Enters shadow 19:23:35 17° 231° (SW) 1,394 3.8 -31.8°
